星链-5415 (STARLINK-5415 )

导读

STARLINK-5415是美国SpaceX公司星链星座的一员,由猎鹰9号火箭于2022年12月17日发射升空,目前运行在近地轨道,轨道倾角约53.2度,轨道高度在538至541公里之间,绕行周期约95分钟,处于在轨正常工作状态。作为星链互联网星座的组成卫星,它主要为全球用户提供高速卫星互联网接入服务,尤其覆盖偏远欠发达地区。

Basic Information
目录编号:
54796
目录名称:
STARLINK-5415
国际标识:
2022-175AQ
轨道中心:
EARTH
卫星名称:
星链-5415
卫星全名:
星链-5415 (STARLINK-5415 )
卫星状态:
在轨 (已飞行1278 天)
发射日期:
2022-12-17 UTC
国别 :
美国 (US)
星等 :
--
Orbit Information
数据来源 国际轨道数据 AOE轨道数据
星历时间 2026-06-16T23:44:52+0800
19小时前
查看轨道信息
2026-06-16T07:00:00+0800
1天前
查看轨道信息
半长轴 6917.895km 6917.91km
偏心率 0.0000975 0.0000821
轨道倾角 53.162° 53.160°
近地点辐角 89.029° 80.263°
升交点赤经 304.497° 307.636°
平近点角 271.082° 87.296°
近地点 539.083km 539.205km
远地点 540.433km 540.341km
周期 95.438分钟 95.438分钟
每日圈数 15.088355 15.088304
Detailed Information
固有亮度:
5
最大亮度:
2.5
卫星平台:
Starlink v1.5
覆盖范围:
全球
运营商:
太空探索技术公司
运营商所在国:
美国
制造商(研发单位):
太空探索技术公司
制造商所在国:
美国
使用方式:
暂无
Satellite Introduction
星链(Starlink)计划是由太空探索技术公司(SpaceX)提出的一个巨型低轨卫星互联网星座项目,计划在2019年至2024年间在太空搭建由约1.2万颗卫星组成的“星链”网络,其中1584颗将部署在地球上空550千米处的近地轨道,并从2020年开始工作。该卫星仍在工作。
2D Orbit Map
3D Orbit Map
Orbit Altitude Analysis Chart
Orbit Inclination Analysis Chart
Orbit Comprehensive Analysis Chart
View Comprehensive Chart